GFSCGP_925_spd_294.txt.gz
Wind_Speed
17 11 13 13 10 12 10 22 16 20 8 17 20 18 19 18 19 17 15 15 14 17 18 17 22 19 28 27 27 23 15 20 17 14 11 9 12 9 2 1 3 5 6 5
12 12 8 11 18 8 13 12 9 15 14 18 7 13 9 15 17 17 18 15 17 18 16 19 16 21 21 20 20 18 19 15 17 13 14 2 5 4 5 5 6 7 6 11
14 7 4 6 12 15 12 11 8 14 15 18 12 7 19 13 14 14 18 19 17 21 19 17 20 20 24 26 24 23 21 19 18 15 11 4 3 1 2 6 10 14 18 15
12 15 4 11 12 11 15 8 7 13 12 6 2 4 11 10 7 16 12 15 18 19 20 16 21 21 25 26 27 25 21 19 17 14 10 9 7 5 5 8 7 6 7 10
18 14 10 11 14 9 16 5 10 13 13 23 19 4 10 10 9 16 18 17 16 21 19 20 23 24 26 27 27 30 28 26 21 19 15 10 10 3 6 10 6 8 15 12
17 11 5 10 15 5 14 7 11 13 14 12 15 13 12 13 13 12 14 18 18 18 19 19 26 24 22 21 14 23 23 19 17 12 8 10 4 4 5 4 7 13 17 12
18 18 10 11 16 10 11 12 8 7 10 10 14 13 11 20 23 18 25 21 16 16 14 15 12 17 15 15 13 12 20 17 15 7 5 4 9 9 7 7 7 9 15 15
14 15 21 13 15 15 12 15 13 13 11 5 15 7 13 18 23 24 6 21 18 16 15 12 17 20 17 14 19 22 30 26 16 15 11 12 16 14 12 10 9 8 10 12
16 18 15 22 14 17 18 13 17 22 20 14 10 10 10 12 10 8 8 19 19 21 20 16 25 24 29 24 22 23 24 20 17 16 13 12 15 14 11 7 5 5 12 13
16 15 14 10 4 12 17 16 9 10 17 14 9 13 7 16 11 19 20 19 20 19 20 15 26 24 24 24 19 20 19 17 13 6 8 7 11 11 10 9 9 9 11 13
12 15 18 11 8 13 10 11 17 15 12 10 12 4 15 18 15 18 17 16 17 15 16 16 21 22 23 21 19 18 18 17 16 15 16 15 13 13 13 8 8 12 13 16
10 13 13 16 17 17 17 17 15 12 17 14 13 4 12 18 16 18 15 13 14 16 15 14 17 18 19 19 16 15 14 13 14 14 15 16 17 17 14 17 12 12 16 18
4 10 13 16 7 6 11 16 14 14 10 13 10 7 17 19 14 13 15 13 12 13 13 11 14 15 16 13 12 12 11 8 11 14 21 21 21 14 16 15 15 17 19 18
1 11 14 13 6 10 7 17 18 15 11 13 12 18 15 15 17 14 12 12 12 13 12 10 9 13 13 10 7 4 3 5 7 9 6 7 7 10 11 15 17 17 19 23
7 13 18 16 4 6 5 8 17 9 12 10 4 12 21 18 13 14 13 13 13 13 12 11 9 12 15 12 10 7 5 4 5 4 3 4 5 6 9 11 13 15 18 20
13 12 16 11 4 8 7 8 5 8 8 8 12 15 17 20 18 17 15 14 13 11 11 11 12 12 10 8 7 5 4 4 3 2 2 1 2 4 6 9 13 18 21 23
17 13 11 8 2 11 9 7 4 11 1 5 3 15 15 16 19 17 17 16 15 14 13 11 11 11 10 7 5 4 3 1 1 1 1 3 5 6 8 11 13 15 17 20
11 2 4 3 12 4 10 12 11 9 6 8 7 5 16 14 10 11 14 15 12 13 11 9 10 9 7 6 5 2 3 3 4 4 4 6 7 9 10 12 12 16 17 21
4 4 5 5 19 5 18 15 16 11 11 9 5 4 11 8 17 11 10 13 11 11 13 10 10 9 6 7 6 5 5 5 6 7 8 9 10 13 15 17 17 18 17 19
12 5 9 6 10 1 6 11 8 5 5 8 6 3 5 5 8 7 13 13 14 15 14 14 12 11 9 6 5 5 6 7 10 9 11 13 15 16 18 21 20 19 18 20
2 4 6 6 4 4 3 9 4 7 5 5 8 7 8 6 8 11 11 10 13 11 9 8 7 7 8 6 7 7 8 10 10 12 13 15 17 20 21 23 19 21 17 19
2 3 5 6 6 4 16 16 4 6 6 6 7 7 11 11 11 11 10 8 11 9 9 6 6 7 6 7 8 10 11 11 11 14 15 17 18 22 22 23 24 21 20 18
1 5 6 6 5 7 17 9 6 5 4 5 4 4 4 15 12 11 9 8 8 7 7 7 7 7 8 9 10 9 11 11 14 15 18 19 22 25 27 25 26 19 14 20
13 9 1 5 8 14 8 7 5 1 4 3 4 5 4 5 7 11 10 8 8 7 7 8 9 9 7 7 8 10 14 15 15 17 19 19 23 26 27 20 16 13 17 19
8 5 1 2 8 5 6 8 7 7 2 3 3 3 5 4 2 11 8 6 6 7 7 7 8 7 9 9 10 12 13 14 17 17 18 22 24 17 23 17 13 15 21 20
9 6 3 5 9 0 8 6 2 2 2 4 3 5 4 2 2 9 5 9 6 6 7 8 8 9 9 10 11 12 14 14 15 16 18 21 23 22 22 16 21 21 24 28

GFSCGP_925_spd_300.txt.gz
Wind_Speed
6 4 6 12 9 4 9 5 8 11 6 7 13 15 17 15 13 12 8 16 16 18 20 22 25 29 33 34 30 27 23 18 16 14 10 8 4 3 4 2 15 12 7 8
2 8 12 16 8 2 11 7 3 7 3 3 7 7 3 4 13 15 14 14 16 14 15 18 24 29 35 35 30 27 26 24 20 18 14 8 2 5 5 7 13 8 6 6
6 12 13 15 10 7 5 12 10 9 6 4 1 7 6 7 8 17 15 16 17 19 18 14 20 25 28 32 32 32 27 28 24 18 15 9 4 3 4 7 3 1 4 7
8 7 9 13 11 10 5 15 15 22 13 4 9 4 8 7 7 10 18 16 18 17 17 16 22 22 28 33 33 32 26 32 25 20 16 14 11 8 8 5 3 0 1 4
11 3 9 13 9 19 11 21 23 17 7 6 8 1 7 9 8 10 15 18 20 18 20 20 25 29 33 30 33 30 29 30 24 20 17 10 10 11 9 5 4 6 4 1
9 2 4 4 3 24 1 18 13 6 4 1 16 8 5 7 16 11 5 16 20 19 18 20 31 29 26 27 27 32 32 27 22 20 14 9 6 10 6 3 4 5 8 8
7 8 6 5 4 5 5 6 2 3 1 6 12 4 14 8 8 8 8 15 17 19 19 17 18 26 27 27 27 33 31 22 14 12 13 9 8 8 9 9 7 8 9 11
4 9 2 1 5 9 6 9 6 6 5 2 4 6 7 9 9 8 8 10 9 3 13 16 19 21 23 23 25 25 26 14 9 7 7 7 12 14 15 13 13 13 14 10
6 6 6 4 6 10 7 3 8 4 1 4 5 4 4 3 9 12 14 15 12 13 13 12 17 19 24 27 26 29 25 19 16 16 16 17 18 18 18 17 14 12 9 7
9 3 7 9 4 4 9 5 1 3 1 3 5 3 4 3 7 12 13 17 15 15 15 12 17 20 20 25 28 28 27 22 21 20 19 19 18 16 14 11 10 8 7 8
4 5 9 2 2 3 4 2 3 5 5 5 3 3 6 13 14 16 14 13 13 14 14 12 17 21 22 24 25 26 25 23 21 18 15 12 11 9 7 6 8 9 11 13
4 6 5 9 4 6 7 7 5 5 5 3 5 2 5 16 17 19 16 13 14 14 12 11 16 18 20 22 20 19 21 18 15 11 10 10 9 7 7 9 10 9 11 12
3 3 3 8 7 8 4 5 4 4 4 4 6 4 5 10 17 15 16 13 1 8 8 8 12 12 14 15 16 13 13 12 11 11 10 8 8 6 8 9 9 10 12 15
3 4 5 6 6 3 6 9 3 5 3 4 4 10 12 11 16 12 12 12 10 6 6 6 5 11 13 14 13 11 10 8 5 5 6 9 8 8 9 9 9 10 12 14
4 2 3 1 2 10 10 11 11 8 1 4 12 14 17 11 14 13 14 13 12 11 8 7 6 8 10 11 11 8 6 6 5 5 5 6 6 6 6 7 7 10 13 14
7 2 4 5 8 18 15 20 15 9 7 13 15 8 7 8 8 10 13 13 12 11 12 10 9 12 13 14 13 10 8 8 6 6 4 3 3 3 5 8 10 12 12 13
4 3 4 4 6 2 10 10 12 9 9 6 6 7 12 10 11 12 12 10 11 9 9 8 9 14 15 15 14 14 11 8 7 4 3 1 3 7 8 10 12 13 15 17
4 3 2 1 6 5 6 5 8 18 11 12 15 15 14 15 10 9 10 13 10 10 9 8 14 16 17 15 13 11 7 5 3 2 4 5 5 7 11 13 15 17 18 20
4 4 4 4 3 3 1 4 3 5 6 7 6 5 9 8 6 4 8 8 12 8 14 19 22 16 14 14 11 8 5 2 3 5 6 8 7 12 15 17 19 21 22 24
6 7 5 2 5 5 6 4 4 3 3 8 10 9 9 10 5 4 11 8 9 19 25 23 19 16 16 14 9 6 5 5 7 9 10 10 12 14 17 19 21 23 24 25
5 4 5 4 2 5 6 5 2 3 6 7 10 10 10 6 4 5 9 9 21 26 24 21 20 18 14 12 12 10 8 9 11 12 13 14 14 16 19 21 24 25 27 29
3 2 1 2 3 5 2 3 7 5 3 7 6 7 7 6 9 11 9 11 18 18 18 17 15 12 12 13 16 13 12 12 12 15 15 15 17 18 21 22 25 28 30 30
2 5 4 5 5 5 3 3 3 4 6 4 7 4 12 12 9 11 8 9 13 19 17 15 13 11 9 13 18 17 17 15 11 11 14 15 18 22 23 23 26 26 28 26
2 4 2 2 3 4 1 3 7 7 8 5 5 8 9 8 7 6 8 8 14 16 14 12 10 11 12 12 14 14 8 8 11 11 15 19 21 22 22 22 22 25 25 26
4 4 4 2 3 3 2 3 8 7 8 9 7 7 10 9 9 9 8 11 17 17 15 14 13 8 5 5 7 9 9 10 12 14 18 21 23 24 25 26 27 28 31 32
5 6 4 5 7 5 4 5 5 7 7 7 3 5 6 14 12 12 9 21 21 17 13 10 8 7 6 8 11 11 11 12 17 20 22 25 28 28 29 27 30 29 33 34

GFSCGP_925_spd_303.txt.gz
Wind_Speed
6 3 6 11 7 1 12 12 10 5 5 1 6 2 17 16 12 12 12 12 14 13 20 23 28 29 29 33 33 30 27 24 20 21 17 12 9 10 7 6 11 13 11 8
1 8 14 10 7 5 6 8 1 3 2 3 2 10 14 15 18 15 10 10 13 14 8 16 23 26 30 35 36 32 27 23 23 24 19 12 8 12 8 7 9 11 10 8
7 11 5 10 6 6 4 7 9 4 5 2 0 6 6 7 8 11 10 14 12 16 12 11 21 27 28 28 35 35 29 26 21 21 17 11 7 8 9 9 7 8 9 8
5 9 10 9 4 6 6 12 12 11 8 4 5 4 7 12 8 9 15 14 15 14 13 12 17 21 26 31 33 34 31 28 23 19 17 16 12 8 7 9 7 5 3 3
8 5 5 4 6 13 10 9 5 7 4 3 2 1 6 7 16 19 15 16 18 17 16 17 21 26 31 27 32 35 32 29 27 22 17 16 11 8 9 7 5 5 5 3
7 4 3 7 4 19 8 11 9 4 3 3 8 6 6 6 26 21 12 18 19 19 18 19 26 24 23 25 28 33 30 27 29 24 17 13 12 13 12 8 8 5 8 10
5 4 4 4 2 6 9 8 3 2 1 6 2 7 12 5 6 24 18 14 17 17 17 15 14 19 19 22 23 27 28 26 26 22 18 14 12 14 10 9 10 12 11 9
4 9 6 5 6 8 13 9 6 7 5 3 5 6 5 10 4 7 7 4 11 15 13 13 14 18 18 21 23 25 27 24 18 15 14 13 11 12 14 11 12 15 12 9
6 7 3 4 4 8 4 6 6 7 2 3 4 5 3 13 13 14 13 14 11 9 9 8 10 16 20 22 25 27 28 19 14 14 17 17 18 19 20 16 12 11 9 6
3 4 5 3 2 1 7 5 2 3 4 4 5 4 4 3 8 11 12 12 11 12 11 9 12 16 16 19 21 25 25 24 22 22 21 21 20 19 16 13 11 8 8 6
4 7 10 3 4 7 0 2 5 5 4 6 3 5 4 7 10 11 10 11 12 12 12 11 11 20 23 24 23 26 24 24 23 21 20 18 15 12 9 7 8 7 7 8
2 4 7 14 4 5 2 2 6 5 4 1 3 4 6 8 12 13 11 12 11 12 9 9 16 11 16 23 24 23 21 21 18 15 13 12 10 8 6 4 8 9 9 10
4 0 2 7 6 5 5 3 4 4 3 6 6 4 7 9 11 10 15 12 11 14 13 9 3 2 12 19 20 18 17 15 13 11 10 10 9 8 8 8 7 9 10 12
7 3 5 6 4 2 3 6 3 4 4 5 5 8 12 13 10 7 7 8 8 5 13 10 6 7 11 14 16 16 15 14 14 10 6 7 8 8 8 6 5 6 6 6
4 3 3 4 9 8 6 6 7 3 1 4 6 7 14 14 13 10 8 9 9 8 8 8 5 5 9 11 12 12 9 7 7 9 10 9 8 8 8 5 4 1 2 4
2 3 4 6 5 12 7 11 6 4 5 5 7 4 8 5 7 8 9 8 8 10 7 6 7 10 10 9 8 8 10 10 8 9 11 11 10 6 4 3 2 4 6 8
3 4 3 5 2 3 7 8 8 2 4 5 4 5 7 7 9 10 9 9 7 6 6 6 6 8 7 8 9 8 7 8 8 8 7 7 7 5 3 4 7 8 11 14
3 3 3 3 1 3 7 3 3 6 4 6 10 7 7 8 3 6 5 4 5 6 6 6 11 12 11 10 10 9 8 7 6 5 6 6 6 6 6 9 11 13 14 17
3 5 4 4 3 3 4 6 3 2 2 6 11 9 6 7 4 1 4 5 5 6 12 17 15 11 10 12 11 9 6 4 3 2 4 5 7 8 10 12 14 16 17 19
5 7 4 3 5 7 8 5 3 1 4 10 6 11 13 11 5 4 11 6 7 15 18 18 16 17 15 15 13 10 8 7 7 7 7 7 9 12 14 16 18 20 21 22
4 4 3 1 2 4 4 4 5 5 7 5 8 12 14 7 4 3 9 7 16 16 18 18 21 20 18 16 13 11 7 8 6 7 9 11 13 15 16 18 20 22 23 25
3 4 1 2 3 3 3 5 6 6 1 4 5 6 10 4 3 5 9 9 15 17 20 23 19 17 16 14 15 14 13 11 8 10 12 14 14 16 18 20 22 21 22 22
1 5 4 6 5 4 4 3 2 4 4 1 6 6 9 8 6 7 7 9 16 23 22 20 20 17 13 14 17 20 21 17 14 14 13 12 14 17 19 19 21 21 21 23
2 2 2 2 2 2 3 2 2 3 4 4 3 5 7 7 7 6 7 8 14 19 20 20 16 13 13 13 14 20 20 17 14 13 13 14 17 19 20 20 19 20 23 24
4 3 4 2 3 3 4 3 3 5 7 7 6 6 8 8 7 7 7 9 18 22 18 17 15 14 12 8 9 10 11 12 13 13 16 18 20 22 24 24 24 22 24 25
5 6 4 5 8 6 6 5 2 6 4 5 6 4 3 8 9 12 9 19 23 20 15 14 12 11 11 10 11 10 11 12 14 17 19 19 21 23 24 24 26 25 27 26

GFSCGP_925_spd_306.txt.gz
Wind_Speed
4 4 3 5 4 2 5 5 4 2 3 3 3 5 11 11 8 8 9 9 10 12 20 23 26 27 29 31 30 29 28 25 23 20 17 13 11 11 9 9 11 14 12 8
4 5 11 8 7 3 5 2 4 2 3 4 3 4 7 12 16 16 14 14 13 11 8 15 23 25 30 35 35 30 32 30 27 24 22 17 14 12 11 8 7 9 9 8
6 8 3 6 8 7 5 8 6 1 3 3 5 6 5 11 13 14 13 12 13 15 12 11 19 26 26 29 36 35 32 31 28 25 23 14 14 11 11 10 8 7 4 7
5 6 6 7 5 7 6 5 5 6 4 0 4 4 5 7 16 14 16 11 14 13 12 12 20 22 27 32 36 37 36 31 26 24 23 19 17 14 13 12 8 4 2 3
6 2 1 4 6 10 4 11 7 8 5 2 1 2 7 3 13 19 18 16 15 14 14 14 20 26 29 26 33 37 36 32 27 23 23 20 17 14 10 10 6 4 4 3
6 4 3 4 3 12 11 12 9 5 3 3 6 7 6 5 8 7 15 19 16 15 15 15 20 20 24 25 26 31 35 34 29 26 22 20 19 16 13 9 9 8 10 10
3 5 4 4 7 4 5 5 3 3 1 6 2 3 9 6 10 9 11 17 18 17 15 13 12 18 20 23 26 28 32 33 30 27 24 20 16 14 14 14 15 12 9 8
3 7 5 5 9 10 8 7 5 7 5 4 4 6 6 1 7 7 5 9 9 12 11 12 15 19 21 27 29 27 29 30 27 22 23 16 11 11 10 15 17 16 12 10
3 6 5 5 3 10 6 4 3 6 3 2 4 7 3 2 8 10 12 13 11 13 12 13 15 4 7 15 21 22 19 18 17 14 13 11 11 13 17 18 16 14 12 10
7 5 4 5 3 1 7 6 2 2 5 5 5 4 5 2 2 4 7 9 9 11 13 13 18 21 21 19 19 19 19 19 18 19 18 19 19 18 18 16 15 12 11 10
5 3 8 2 5 8 2 2 2 5 4 5 3 6 2 3 4 5 5 6 7 9 10 11 16 22 23 21 25 29 29 18 19 19 10 15 17 18 17 15 13 12 9 7
2 5 5 11 0 1 4 3 4 5 4 1 3 6 2 6 7 6 4 6 5 7 7 8 15 22 22 22 13 11 10 12 20 12 19 19 15 13 13 12 9 6 7 9
4 1 3 10 6 1 4 2 3 4 3 6 5 6 4 6 8 6 7 3 4 6 7 6 9 5 14 18 21 11 16 20 21 19 18 15 12 11 11 10 10 11 11 11
6 4 6 7 6 2 2 4 2 3 4 4 6 4 9 10 9 6 5 6 7 5 4 3 5 12 16 16 14 15 14 15 17 17 17 16 15 13 13 12 10 10 7 6
5 4 3 2 2 3 2 3 3 2 2 4 3 7 8 10 9 6 6 6 6 5 3 2 4 9 15 14 12 13 13 13 11 12 12 12 12 13 12 9 8 7 4 1
3 1 2 3 4 6 4 6 2 3 2 2 3 2 3 7 9 6 5 8 7 6 5 5 5 8 9 10 10 9 11 11 12 11 11 12 11 9 7 7 6 4 4 5
3 5 3 4 4 4 3 3 1 2 2 5 4 5 7 7 9 8 9 9 7 6 5 5 5 8 8 8 9 10 10 9 9 9 9 9 8 6 5 4 5 6 7 8
4 5 2 2 3 2 5 4 2 2 2 1 0 10 9 7 1 5 7 7 5 5 7 7 12 12 11 11 11 10 10 10 10 9 9 8 8 7 6 6 7 8 9 11
3 5 4 4 2 5 5 3 3 0 4 1 4 7 5 6 7 5 9 6 8 10 13 15 16 15 15 15 15 13 11 9 7 6 5 5 5 6 8 9 10 11 12 14
5 7 4 2 4 7 7 2 4 3 4 4 6 6 11 6 4 4 13 10 6 10 17 18 17 15 14 15 14 12 9 7 7 8 7 6 6 8 10 11 12 14 14 16
3 4 4 2 2 5 4 2 2 5 6 1 8 7 8 5 4 1 7 7 12 13 15 17 15 15 13 12 10 8 7 7 3 5 6 6 8 10 12 13 16 17 17 17
4 4 2 2 2 3 2 3 6 6 0 4 4 6 6 2 1 3 5 8 13 14 15 15 13 11 7 10 12 11 11 8 7 7 8 9 11 12 13 15 18 18 18 18
1 4 4 6 5 4 4 4 3 4 4 4 6 6 7 6 5 4 6 8 13 18 17 15 14 12 11 13 13 13 14 14 13 12 14 14 13 14 15 16 17 18 18 19
2 3 1 2 2 3 3 2 3 5 2 5 4 5 7 6 5 4 4 5 10 16 15 16 15 13 12 13 14 16 15 17 16 17 16 14 16 17 18 19 19 19 21 21
3 4 3 3 4 3 1 2 4 3 4 5 4 5 7 6 5 5 5 6 12 16 17 18 17 14 16 13 12 13 12 13 15 14 15 17 18 19 20 21 22 20 20 20
5 6 4 5 8 5 5 5 4 7 5 6 6 3 3 6 7 8 6 13 17 20 18 15 14 15 13 11 12 12 12 13 15 16 18 19 20 21 22 22 24 22 23 24

GFSCGP_925_spd_309.txt.gz
Wind_Speed
1 1 3 7 4 1 4 5 4 4 2 5 8 8 11 16 16 15 16 15 16 17 20 19 20 21 20 19 19 21 21 22 16 14 10 9 9 9 9 7 9 12 11 10
3 2 3 3 3 6 5 5 5 4 3 3 2 9 11 17 21 20 19 18 19 18 15 19 22 22 24 25 24 24 26 23 20 16 14 11 9 9 8 8 8 9 11 10
4 1 9 5 7 9 12 10 7 2 3 4 6 8 11 14 17 18 18 17 18 19 18 17 21 25 26 26 26 27 30 26 26 22 16 14 13 12 8 9 9 7 9 10
5 4 5 7 8 10 8 6 9 5 3 4 5 5 3 10 17 20 20 19 20 20 20 18 21 23 27 29 25 26 30 32 28 26 18 17 17 16 16 15 10 6 4 4
2 3 1 5 3 11 1 2 5 5 3 3 1 3 3 3 10 18 20 22 21 21 20 20 24 27 29 24 25 25 26 29 30 30 24 21 19 19 14 10 10 5 4 4
7 2 4 1 5 9 14 13 9 5 1 4 4 5 8 3 1 1 13 20 21 19 18 19 24 20 21 21 21 21 23 28 31 30 26 25 23 17 12 12 8 9 9 6
4 8 2 4 9 10 2 7 0 1 2 4 3 6 10 4 5 5 12 14 20 19 18 16 16 21 22 24 24 21 21 23 26 30 28 24 21 19 12 11 13 14 12 8
4 6 4 5 12 10 15 5 6 8 6 4 3 6 4 2 4 6 8 9 15 17 15 16 15 16 17 18 18 15 13 10 6 9 11 16 16 16 15 15 16 13 9 8
5 6 2 4 4 6 7 8 3 3 2 4 4 6 8 4 2 6 10 11 10 11 10 9 11 7 8 10 10 18 27 29 24 19 9 6 11 16 20 19 15 13 11 10
5 9 9 3 4 3 5 6 4 3 6 9 7 4 9 7 4 4 6 6 8 11 11 10 14 19 23 26 31 39 36 33 23 14 20 14 9 13 23 18 15 15 14 10
4 4 13 2 7 13 5 4 2 2 3 11 14 6 2 3 3 4 2 4 6 8 9 9 14 20 25 27 32 33 24 17 16 8 10 5 5 11 10 14 15 15 14 9
2 2 7 14 1 2 2 10 10 8 6 4 5 5 1 2 5 7 6 5 6 7 6 8 11 14 16 24 27 21 12 13 12 15 19 17 13 11 10 12 13 13 11 10
5 3 5 7 4 3 5 4 4 3 2 7 8 6 3 4 6 6 7 8 7 8 9 8 9 9 10 9 10 9 7 8 14 14 13 13 15 14 12 12 10 10 11 12
5 3 7 11 5 2 4 4 4 6 5 5 7 5 7 7 6 7 7 8 8 8 8 8 7 8 8 10 12 13 14 12 12 13 13 12 11 11 12 12 12 12 10 9
3 8 5 5 4 4 2 3 6 8 3 6 3 4 3 9 9 9 8 7 7 7 9 8 7 8 9 11 11 13 15 15 14 13 12 10 11 11 10 9 9 9 6 5
1 3 4 5 1 2 2 2 3 2 3 5 3 5 1 9 12 10 9 7 6 5 7 8 7 8 9 11 11 11 10 10 11 11 10 11 12 12 10 9 9 7 7 6
3 5 5 7 0 3 4 2 2 1 2 3 2 4 9 10 10 11 10 8 9 7 7 7 8 9 10 10 10 10 11 10 9 9 10 11 11 10 9 8 7 7 8 9
4 5 1 0 1 5 2 2 2 1 2 4 2 6 8 8 6 6 9 13 12 12 11 10 7 11 13 11 10 10 9 9 10 9 10 10 10 8 7 7 8 8 9 10
3 3 3 2 4 3 2 5 3 2 5 3 7 8 7 7 5 7 13 12 12 13 14 14 13 11 13 13 11 11 10 9 9 10 10 10 9 9 9 10 10 9 9 10
4 3 2 3 3 5 1 2 2 0 3 3 6 8 9 9 3 3 12 10 9 12 12 15 15 13 14 11 12 12 11 11 10 10 10 9 9 9 11 11 10 10 10 13
0 2 0 3 2 3 2 3 2 4 3 2 9 9 10 4 3 2 9 11 13 13 14 17 15 13 11 13 13 11 9 9 7 7 7 8 9 10 10 12 12 11 12 14
2 3 2 2 3 3 2 4 4 2 2 4 6 8 9 4 3 5 9 11 14 16 18 19 16 13 13 14 14 12 11 8 8 7 9 10 11 11 10 12 13 12 12 13
2 2 1 3 2 2 2 2 1 2 2 4 4 6 7 7 4 7 9 11 16 18 17 16 15 14 13 14 13 10 10 8 8 10 11 12 12 12 11 11 12 12 12 13
3 3 2 2 2 4 3 4 4 4 2 4 2 5 7 5 4 4 6 8 11 13 15 16 16 13 11 11 10 11 8 7 9 11 12 12 11 11 12 12 13 13 14 14
1 5 2 3 4 4 5 6 4 5 6 6 6 5 6 7 5 3 5 8 11 12 13 14 14 11 9 8 9 10 10 9 8 9 10 9 11 12 14 15 15 15 16 15
6 5 3 0 4 2 4 7 6 8 9 8 7 4 4 5 4 5 4 5 9 12 12 14 12 10 8 8 9 9 8 8 8 8 10 12 13 14 15 16 18 18 21 21

GFSCGP_925_spd_315.txt.gz
Wind_Speed
1 7 6 9 16 11 27 8 5 5 8 8 5 13 11 12 12 13 13 15 15 15 18 21 19 18 18 18 17 18 17 15 13 13 12 13 13 14 16 15 12 5 8 10
11 9 12 4 6 12 9 4 3 6 2 6 4 12 9 15 14 13 14 16 16 17 17 20 21 19 18 21 20 19 20 19 17 14 13 13 12 12 15 12 5 4 8 9
4 3 4 4 8 13 7 7 2 6 8 11 9 13 9 12 11 12 13 13 16 17 18 18 21 21 21 20 21 22 24 23 22 20 16 13 13 12 9 11 12 11 8 7
12 11 5 8 7 8 10 22 7 14 10 2 16 3 8 9 13 14 14 14 14 17 17 17 20 23 23 23 22 23 23 22 22 22 19 19 16 18 19 17 16 8 4 5
7 10 9 2 7 9 9 4 4 5 13 11 15 7 5 12 11 13 13 16 15 15 17 18 21 26 24 23 23 24 23 22 22 22 22 19 21 19 14 11 12 7 6 6
10 17 4 2 3 6 6 9 11 12 15 12 14 16 6 8 8 8 9 11 14 15 16 16 20 20 22 23 22 22 23 22 20 21 20 19 19 13 16 16 9 12 17 9
14 16 14 9 13 9 9 16 11 4 7 7 7 15 8 12 9 7 5 2 6 12 15 15 14 18 21 20 19 18 18 12 6 7 10 9 7 6 7 13 17 22 18 9
8 10 21 10 10 17 3 18 8 11 12 7 14 3 5 11 12 12 8 2 4 10 12 16 15 17 17 16 25 24 26 28 24 21 20 19 15 10 8 10 17 26 18 14
15 17 14 10 8 10 13 16 16 16 19 17 15 6 12 17 15 12 12 7 7 7 13 13 5 7 13 25 20 25 31 28 27 25 26 20 16 11 12 14 17 16 16 6
13 17 13 13 3 11 12 17 13 11 15 15 17 12 8 6 13 15 11 9 7 7 11 13 14 22 25 25 23 22 24 26 22 18 10 10 2 7 5 9 7 12 9 6
15 15 16 16 14 14 10 12 12 16 12 11 12 2 9 5 10 16 12 12 9 10 8 8 13 19 21 22 22 21 18 14 5 5 3 10 12 12 6 4 6 7 4 5
10 13 13 18 14 11 9 15 16 12 13 14 12 12 10 12 11 14 13 11 9 9 9 8 12 16 19 20 18 13 10 1 2 3 4 10 11 10 8 6 5 4 6 6
6 8 13 18 16 18 10 12 15 19 17 20 15 11 11 13 13 15 12 10 9 8 9 9 12 12 14 17 12 8 6 3 5 9 11 11 12 10 8 7 9 9 6 5
5 14 17 15 18 16 13 13 17 16 11 16 15 16 13 8 11 9 11 11 10 9 9 9 8 11 12 9 6 6 6 5 5 8 9 10 8 9 10 10 10 7 6 5
9 15 16 19 19 20 19 22 18 21 22 17 19 19 9 12 12 10 11 12 13 14 14 13 13 14 11 9 9 9 9 8 7 7 9 10 10 9 8 7 7 7 7 6
12 15 12 19 18 19 21 23 21 20 16 19 19 18 14 13 14 12 10 9 10 11 11 10 11 14 13 13 13 12 12 12 12 10 10 9 9 9 8 6 6 6 6 6
15 14 12 17 15 18 13 15 20 13 12 13 9 7 7 6 10 11 12 11 11 11 11 11 10 15 14 12 10 11 13 12 10 10 9 8 8 8 7 6 5 6 7 7
14 13 12 13 15 17 5 10 10 7 6 5 6 7 4 9 11 12 14 14 13 13 12 11 10 10 11 10 10 10 10 9 8 9 10 9 8 7 7 6 5 6 7 8
10 11 12 12 13 13 10 7 4 5 3 3 6 6 9 9 10 10 10 9 11 13 13 12 11 13 12 12 11 9 8 8 7 7 6 7 6 5 5 6 5 7 8 10
12 5 10 10 9 13 6 9 3 3 11 8 9 8 9 8 7 10 11 8 11 13 13 15 15 15 14 12 11 9 8 5 4 4 4 5 4 6 6 6 7 9 11 13
10 10 13 12 11 6 11 6 3 7 3 3 5 4 7 3 7 13 18 11 11 13 15 15 17 17 15 14 11 9 8 6 5 4 5 5 5 5 6 7 9 10 12 13
9 9 10 7 9 2 4 7 3 6 2 2 3 4 8 6 5 8 10 9 10 12 15 18 17 17 16 14 12 10 9 7 7 7 7 7 8 9 9 10 10 11 13 16
8 9 1 3 2 2 2 7 6 2 3 3 5 5 9 6 6 5 7 9 11 14 17 18 18 17 16 15 12 10 9 8 9 9 9 10 11 12 13 13 14 15 18 21
7 5 6 3 7 5 3 6 3 1 4 5 7 5 2 6 7 5 5 7 10 15 17 18 17 16 14 14 13 11 9 9 9 9 11 13 15 16 16 17 18 18 20 20
4 10 6 7 6 3 5 4 7 5 6 5 5 3 3 2 8 5 7 7 11 13 15 16 15 15 14 14 13 12 10 9 9 10 12 13 15 15 15 17 16 17 18 15
6 7 4 3 3 4 10 6 10 8 8 6 5 3 2 2 6 7 7 10 12 13 14 15 15 15 15 15 14 12 10 10 11 11 13 13 11 12 13 14 16 21 23 21

GFSCGP_925_spd_318.txt.gz
Wind_Speed
9 7 11 3 13 21 19 17 17 9 7 9 8 6 19 17 21 16 15 15 15 14 17 23 19 19 25 22 21 17 18 13 19 17 16 12 13 17 18 18 15 15 7 5
3 12 20 11 20 17 14 6 20 8 17 1 5 8 16 19 22 14 15 17 15 16 16 21 21 20 25 24 25 22 17 18 14 16 16 17 16 14 18 19 10 11 8 5
10 9 17 11 9 13 13 16 13 9 14 6 17 12 11 18 12 17 15 17 16 16 16 19 20 23 24 26 26 25 25 21 22 20 17 14 14 11 9 6 8 8 10 8
19 14 13 13 3 10 5 7 15 19 13 6 12 3 3 13 16 15 10 15 17 16 15 15 21 23 24 28 31 31 30 24 23 20 17 16 11 12 9 10 13 11 9 10
13 6 15 2 6 8 7 19 21 26 26 13 1 10 5 14 14 24 14 14 15 18 17 19 22 27 27 28 31 30 35 32 27 25 23 14 17 9 9 16 12 4 4 3
16 6 8 8 9 8 8 19 24 22 7 5 5 5 5 6 6 7 14 16 13 14 16 16 24 27 25 28 29 34 35 31 27 17 11 12 4 12 9 10 14 5 5 12
10 12 16 6 16 15 8 14 10 6 2 8 8 8 10 10 25 23 7 8 10 12 13 11 10 16 25 22 26 31 33 22 18 16 12 9 12 15 14 10 6 11 13 15
13 13 22 7 7 19 6 13 8 16 16 5 5 6 7 22 23 24 9 10 5 1 2 12 14 17 16 20 26 33 35 30 24 23 21 16 12 9 11 9 9 13 20 15
6 11 21 13 14 30 12 12 15 17 18 16 7 6 5 10 17 21 10 9 11 15 17 20 20 25 25 27 26 29 32 31 28 28 22 15 9 8 12 15 15 16 11 10
8 3 20 20 14 8 10 12 11 11 6 11 16 5 10 14 16 24 9 5 9 13 15 17 18 22 25 27 28 30 30 27 23 14 8 5 11 14 13 13 14 10 9 8
7 12 18 19 12 16 9 12 12 12 8 10 13 6 9 24 26 21 15 9 8 10 12 14 15 19 22 25 26 26 22 17 10 8 6 8 11 11 12 12 10 9 7 8
7 13 13 16 16 16 11 15 16 10 12 12 12 4 15 22 20 16 14 11 11 11 11 11 16 19 20 20 20 19 12 8 7 5 8 10 9 9 10 9 7 7 7 7
9 10 9 13 13 8 16 13 13 11 14 15 13 6 15 18 14 10 13 11 9 10 11 10 13 15 17 16 15 11 9 8 8 9 11 12 10 10 9 10 9 8 7 4
5 14 15 14 21 17 11 19 14 13 12 15 15 5 11 16 14 13 12 13 11 10 10 10 10 14 14 12 10 10 10 8 9 11 10 11 10 8 7 8 8 6 5 5
5 14 16 18 21 22 19 20 21 21 18 16 20 23 10 12 16 12 3 11 14 12 12 11 11 12 11 10 12 12 10 9 8 11 11 10 9 10 8 6 6 6 5 4
10 12 13 17 18 17 21 22 19 22 23 21 19 15 15 19 16 14 12 12 11 12 15 14 12 13 10 10 13 12 11 9 10 10 11 11 10 9 9 8 6 5 2 2
14 12 12 18 21 18 15 18 14 17 15 14 18 8 16 14 16 11 7 8 12 13 13 11 11 12 12 11 14 14 14 11 10 11 10 10 10 8 8 7 6 5 6 7
13 11 11 13 15 19 19 5 7 13 6 12 13 19 14 4 11 14 10 13 13 14 14 12 14 15 16 15 16 16 15 13 12 11 10 9 9 10 9 8 8 5 8 9
13 10 10 11 14 18 15 2 4 8 6 11 4 11 8 22 20 15 16 13 13 13 14 17 17 17 15 14 14 11 9 7 8 8 9 10 10 9 10 11 9 8 8 7
3 5 9 11 14 14 14 9 7 3 9 12 11 7 9 2 7 3 7 8 11 15 18 17 17 15 16 15 13 12 11 11 9 9 8 7 5 5 6 4 6 7 9 12
7 2 13 10 12 3 4 6 1 6 4 4 6 8 12 11 8 12 9 8 10 20 19 15 18 16 16 15 13 11 9 7 6 5 5 5 5 6 7 9 8 8 10 12
11 4 11 6 10 8 10 8 3 3 1 3 5 12 14 12 17 14 14 12 9 13 17 18 15 18 17 15 13 10 9 7 7 7 7 7 8 9 9 11 11 12 12 14
4 11 2 4 4 7 14 9 4 3 4 4 8 9 10 8 6 6 7 8 9 11 14 16 17 18 17 15 13 11 10 8 7 6 7 9 10 11 11 13 14 16 17 21
9 14 3 5 6 16 7 6 3 1 6 5 8 5 5 2 10 8 5 6 9 12 14 17 17 18 16 17 13 11 12 10 9 10 12 13 15 17 18 18 18 17 19 19
3 9 2 6 9 9 5 3 8 3 5 9 7 6 5 3 7 7 6 3 6 13 15 15 15 16 16 16 14 12 10 12 11 12 12 13 15 17 18 20 20 19 19 18
4 6 2 3 4 3 7 6 8 6 6 5 5 5 4 5 4 8 7 10 7 10 12 12 11 12 16 17 15 14 12 11 11 11 14 14 16 14 12 13 14 23 27 25